Weather History for Caumont Avignon, France

Change the Weather History Date:

Thursday, October 3, 2013

  Actual Average Record
Temperature  
Mean Temperature 68 °F -  
Max Temperature 75 °F - - ()
Min Temperature 60 °F - - ()
Cooling Degree Days 2    
Growing Degree Days 18 (Base 50)    
Moisture  
Dew Point 56 °F    
Average Humidity 65    
Maximum Humidity 94    
Minimum Humidity 50    
Precipitation  
Precipitation 0.00 in - - ()
Sea Level Pressure  
Sea Level Pressure 30.05 in    
Wind  
Wind Speed 5 mph ()    
Max Wind Speed 14 mph    
Max Gust Speed -    
Visibility 6.2 miles    
Events      
T = Trace of Precipitation, MM = Missing Value Source: Averaged Metar Reports

Daily Weather History Graph

Daily Weather History Graph

Search for Another Location

Airport:

Trip Planner

Search our weather history database for the weather conditions in past years. The results will help you decide how hot, cold, wet, or windy it might be!

Date:

Astronomy

Oct. 03, 2013 Rise Set
Actual Time 7:40 AM CEST 7:17 PM CEST
Civil Twilight 7:11 AM CEST 7:46 PM CEST
Nautical Twilight 6:38 AM CEST 8:19 PM CEST
Astronomical Twilight 6:04 AM CEST 8:53 PM CEST
Moon 5:55 AM CEST (10/3) 6:18 PM CEST (10/3)
Length of Visible Light 12h 34m
Length of Day
11h 37m
Waning Crescent, 3% of the Moon is Illuminated
Oct 3
Waning Crescent
Oct 5
New
Oct 12
First Quarter
Oct 19
Full
Oct 27
Last Quarter

Hourly Weather History & Observations

Time (CEST) Temp. Dew Point Humidity Pressure Visibility Wind Dir Wind Speed Gust Speed Precip Events Conditions
12:00 AM 64.4 °F 60.8 °F 88% 30.01 in 6.2 mi East 2.3 mph - N/A   Partly Cloudy
12:30 AM 66.2 °F 55.4 °F 68% 30.01 in 6.2 mi East 8.1 mph - N/A   Unknown
1:00 AM 66.2 °F 55.4 °F 68% 30.01 in 6.2 mi East 6.9 mph - N/A   Unknown
1:30 AM 66.2 °F 55.4 °F 68% 30.01 in 6.2 mi East 4.6 mph - N/A   Mostly Cloudy
2:00 AM 68.0 °F 53.6 °F 60% 30.04 in 6.2 mi ESE 4.6 mph - N/A   Overcast
2:30 AM 66.2 °F 55.4 °F 68% 30.04 in 6.2 mi SSE 3.5 mph - N/A   Overcast
3:00 AM 66.2 °F 55.4 °F 68% 30.01 in 6.2 mi Variable 3.5 mph - N/A   Overcast
3:30 AM 66.2 °F 57.2 °F 73% 30.01 in 6.2 mi Variable 3.5 mph - N/A   Overcast
4:00 AM 64.4 °F 57.2 °F 77% 30.01 in 6.2 mi Calm Calm - N/A   Overcast
4:30 AM 64.4 °F 57.2 °F 77% 30.01 in 6.2 mi Calm Calm - N/A   Mostly Cloudy
5:00 AM 62.6 °F 57.2 °F 82% 30.01 in 6.2 mi Calm Calm - N/A   Mostly Cloudy
5:30 AM 60.8 °F 55.4 °F 82% 30.01 in 6.2 mi Calm Calm - N/A   Scattered Clouds
6:00 AM 60.8 °F 57.2 °F 88% 30.01 in 6.2 mi Calm Calm - N/A   Overcast
6:30 AM 60.8 °F 59.0 °F 94% 30.01 in 6.2 mi Calm Calm - N/A   Overcast
7:00 AM 62.6 °F 59.0 °F 88% 30.01 in 6.2 mi WSW 1.2 mph - N/A   Overcast
7:30 AM 62.6 °F 59.0 °F 88% 30.01 in 6.2 mi Calm Calm - N/A   Overcast
8:00 AM 66.2 °F 57.2 °F 73% 30.04 in 6.2 mi South 5.8 mph - N/A   Overcast
8:30 AM 68.0 °F 55.4 °F 64% 30.04 in 6.2 mi SSE 5.8 mph - N/A   Overcast
9:00 AM 68.0 °F 55.4 °F 64% 30.04 in 6.2 mi SSE 4.6 mph - N/A   Overcast
9:30 AM 69.8 °F 55.4 °F 60% 30.04 in 6.2 mi SSE 4.6 mph - N/A   Overcast
10:00 AM 69.8 °F 55.4 °F 60% 30.04 in 6.2 mi Variable 3.5 mph - N/A   Overcast
10:30 AM 71.6 °F 57.2 °F 60% 30.06 in 6.2 mi South 3.5 mph - N/A   Overcast
11:00 AM 73.4 °F 55.4 °F 53% 30.06 in 6.2 mi South 9.2 mph - N/A   Overcast
11:30 AM 71.6 °F 55.4 °F 57% 30.06 in 6.2 mi South 8.1 mph - N/A   Overcast
12:00 PM 71.6 °F 55.4 °F 57% 30.06 in 6.2 mi South 5.8 mph - N/A   Overcast
12:30 PM 73.4 °F 55.4 °F 53% 30.06 in 6.2 mi SE 9.2 mph - N/A   Overcast
1:00 PM 75.2 °F 57.2 °F 53% 30.06 in 6.2 mi SSE 10.4 mph - N/A   Unknown
1:30 PM 73.4 °F 57.2 °F 57% 30.09 in 6.2 mi SSE 11.5 mph - N/A   Overcast
2:00 PM 75.2 °F 57.2 °F 53% 30.09 in 6.2 mi SSE 9.2 mph - N/A   Overcast
2:30 PM 75.2 °F 55.4 °F 50% 30.09 in 6.2 mi SE 11.5 mph - N/A   Overcast
3:00 PM 75.2 °F 57.2 °F 53% 30.09 in 6.2 mi SSE 8.1 mph - N/A   Overcast
3:30 PM 73.4 °F 57.2 °F 57% 30.09 in 6.2 mi SE 5.8 mph - N/A   Overcast
4:00 PM 75.2 °F 59.0 °F 57% 30.09 in 6.2 mi SE 4.6 mph - N/A   Overcast
4:30 PM 73.4 °F 57.2 °F 57% 30.06 in 6.2 mi East 4.6 mph - N/A   Overcast
5:00 PM 73.4 °F 59.0 °F 61% 30.06 in 6.2 mi SE 3.5 mph - N/A   Mostly Cloudy
5:30 PM 73.4 °F 59.0 °F 61% 30.06 in 6.2 mi Variable 2.3 mph - N/A   Mostly Cloudy
6:00 PM 73.4 °F 59.0 °F 61% 30.06 in 6.2 mi SE 4.6 mph - N/A   Overcast
6:30 PM 71.6 °F 59.0 °F 64% 30.09 in 6.2 mi SSE 3.5 mph - N/A   Overcast
7:00 PM 71.6 °F 57.2 °F 60% 30.09 in 6.2 mi SE 6.9 mph - N/A   Overcast
7:30 PM 71.6 °F 57.2 °F 60% 30.09 in 6.2 mi ESE 8.1 mph - N/A   Overcast
8:00 PM 71.6 °F 55.4 °F 57% 30.06 in 6.2 mi ESE 11.5 mph - N/A   Mostly Cloudy
8:30 PM 69.8 °F 55.4 °F 60% 30.06 in 6.2 mi ESE 12.7 mph - N/A   Unknown
9:00 PM 69.8 °F 53.6 °F 56% 30.09 in 6.2 mi ESE 13.8 mph - N/A   Mostly Cloudy
9:30 PM 69.8 °F 53.6 °F 56% 30.09 in 6.2 mi SE 11.5 mph - N/A   Partly Cloudy
10:00 PM 69.8 °F 53.6 °F 56% 30.09 in 6.2 mi SSE 10.4 mph - N/A   Mostly Cloudy
10:30 PM 68.0 °F 53.6 °F 60% 30.09 in 6.2 mi SSE 5.8 mph - N/A   Overcast
11:00 PM 69.8 °F 53.6 °F 56% 30.09 in 6.2 mi SE 10.4 mph - N/A   Overcast
11:30 PM 69.8 °F 53.6 °F 56% 30.09 in 6.2 mi SE 10.4 mph - N/A   Overcast